TimeAST,TemperatureF,Dew PointF,Humidity,Sea Level PressureIn,VisibilityMPH,Wind Direction,Wind SpeedMPH,Gust SpeedMPH,PrecipitationIn,Events,Conditions,WindDirDegrees,DateUTC
12:56 AM,75.9,69.1,79,30.00,10.0,ESE,4.6,-,N/A,,Partly Cloudy,110,2013-04-18 04:56:00
1:56 AM,75.9,69.1,79,29.97,10.0,ESE,5.8,-,N/A,,Partly Cloudy,120,2013-04-18 05:56:00
2:56 AM,75.9,69.1,79,29.97,10.0,ESE,3.5,-,N/A,,Partly Cloudy,120,2013-04-18 06:56:00
3:56 AM,75.0,69.1,82,29.96,10.0,ESE,4.6,-,0.09,,Scattered Clouds,110,2013-04-18 07:56:00
4:56 AM,73.9,70.0,87,29.96,10.0,East,3.5,-,N/A,,Scattered Clouds,90,2013-04-18 08:56:00
5:56 AM,73.9,70.0,87,29.99,10.0,East,6.9,-,N/A,,Scattered Clouds,90,2013-04-18 09:56:00
6:15 AM,73.4,69.8,88,29.99,10.0,East,10.4,18.4,0.02,Rain,Light Rain,100,2013-04-18 10:15:00
6:26 AM,73.4,69.8,88,29.99,10.0,ESE,10.4,-,0.12,Rain,Light Rain,120,2013-04-18 10:26:00
6:56 AM,75.0,70.0,84,30.01,10.0,ESE,4.6,-,0.12,Rain,Light Rain,120,2013-04-18 10:56:00
7:56 AM,77.0,71.1,82,30.03,10.0,ESE,5.8,-,0.00,,Scattered Clouds,120,2013-04-18 11:56:00
8:56 AM,79.0,71.1,77,30.04,10.0,East,18.4,21.9,0.00,,Scattered Clouds,90,2013-04-18 12:56:00
9:56 AM,82.0,70.0,67,30.05,10.0,East,20.7,-,N/A,,Scattered Clouds,80,2013-04-18 13:56:00
10:56 AM,82.9,69.1,63,30.04,10.0,ENE,21.9,28.8,N/A,,Scattered Clouds,70,2013-04-18 14:56:00
11:56 AM,84.0,69.1,61,30.03,10.0,ENE,21.9,27.6,N/A,,Partly Cloudy,70,2013-04-18 15:56:00
12:56 PM,84.9,69.1,59,30.01,10.0,ENE,24.2,29.9,N/A,,Partly Cloudy,70,2013-04-18 16:56:00
1:56 PM,84.9,68.0,57,30.01,10.0,ENE,26.5,32.2,N/A,,Partly Cloudy,70,2013-04-18 17:56:00
2:56 PM,84.9,71.1,63,29.99,10.0,East,23.0,-,N/A,,Scattered Clouds,80,2013-04-18 18:56:00
3:56 PM,84.0,69.1,61,29.99,10.0,East,21.9,32.2,N/A,,Scattered Clouds,80,2013-04-18 19:56:00
4:56 PM,82.9,69.1,63,29.99,10.0,East,23.0,27.6,N/A,,Scattered Clouds,80,2013-04-18 20:56:00
5:56 PM,80.1,68.0,67,29.99,10.0,East,18.4,25.3,N/A,,Scattered Clouds,80,2013-04-18 21:56:00
6:56 PM,79.0,69.1,72,30.01,10.0,East,15.0,21.9,N/A,,Scattered Clouds,80,2013-04-18 22:56:00
7:56 PM,79.0,69.1,72,30.03,10.0,ENE,19.6,26.5,N/A,,Scattered Clouds,70,2013-04-18 23:56:00
8:56 PM,79.0,69.1,72,30.04,10.0,ENE,15.0,25.3,N/A,,Mostly Cloudy,70,2013-04-19 00:56:00
9:56 PM,79.0,68.0,69,30.06,10.0,ENE,15.0,25.3,N/A,,Mostly Cloudy,70,2013-04-19 01:56:00
10:56 PM,78.1,68.0,71,30.06,10.0,ENE,13.8,25.3,N/A,,Mostly Cloudy,70,2013-04-19 02:56:00
11:56 PM,78.1,69.1,74,30.05,10.0,East,13.8,21.9,N/A,,Mostly Cloudy,80,2013-04-19 03:56:00